Погода в Старом Сибае

Россия / Республика Башкортостан     52°42′16″N   58°34′23″E
темп.,
°C
ветер,
м/с
пор.,
м/с
влажн.,
%
обл.,
%
осадки,
мм/ч
давл.,
гПа
погр.,
м
11 апреля, вс
вс1123:00+1в1110097 0.0 103731
02:000вюв229897 0.0 1037203
05:00−2юв239894 0.0 1038178
08:000ююв23100100 0.0 1038116
11:00+2ююв24100100 0.0 1038207
14:00+3ю359690 0.0 1038309
17:00+4ю359453 0.0 1037231
20:00+2ююз22906 0.0 103711
12 апреля, пн
пн1223:00+2юз11835 0.0 103710
02:00+2юз22784 0.0 103710
05:00+2зюз21665 0.0 103710
08:00+4з11585 0.0 103610
11:00+9в10505 0.0 1036135
14:00+11в21558 0.0 1036292
17:00+11св22595 0.0 1036294
20:00+7св1176100 0.0 103610
13 апреля, вт
вт1323:00+6ссв228219 0.0 103711
02:00+4ссв22897 0.0 103812
05:00+3ссв33885 0.0 103928
08:00+4ссв239488 0.0 104096
11:00+6св2296100 0.0 1040173
14:00+8св2394100 0.0 1039335
17:00+8ссв2295100 0.0 1038223
20:00+7ссв1196100 0.0 103714
14 апреля, ср
ср1423:00+8в119098 0.0 103613
02:00+8в00857 0.0 103410
05:00+5св11891 0.0 103410
08:00+7ссв12904 0.0 103462
11:00+10всв23700 0.0 1032481
14:00+13в34490 0.0 1030771
17:00+14в34430 0.0 1028820
20:00+11в22600 0.0 102712
15 апреля, чт
чт1523:00+8вюв11670 0.0 102710
02:00+7всв00690 0.0 102610
05:00+6с11700 0.0 102510
08:00+7св11660 0.0 102419
11:00+11всв22460 0.0 1023424
14:00+14в22354 0.0 1021752
17:00+15вюв22332 0.0 1019882
20:00+12юв11460 0.0 101810